Temp
52 52 52 51 51 52 52 51 51 52 52 52 52 52 51 50 49 49 48 48 48 49 49 50 49 50 50 49 49 51 51 51 52 52 52 51 49 47 48 47 47 47
52 52 51 51 51 51 51 51 51 52 52 53 52 51 51 50 49 48 47 47 47 48 49 49 48 49 49 48 47 46 45 44 46 47 45 44 42 43 45 44 45 43
51 51 51 50 50 50 51 51 52 53 53 53 52 51 51 49 47 46 47 46 47 47 46 47 46 47 46 46 45 42 43 43 43 41 43 42 40 42 41 40 42 43
51 51 51 51 51 51 51 52 52 52 52 51 52 51 51 49 48 46 45 44 42 42 43 44 44 43 43 43 43 41 41 42 42 41 41 40 40 40 39 38 39 41
51 50 50 50 50 50 51 52 52 52 51 51 50 49 48 46 45 43 42 42 41 40 41 40 40 41 41 40 41 41 40 41 40 40 40 40 39 40 38 37 37 39
50 51 50 49 49 49 50 51 51 51 51 49 49 47 46 44 44 43 42 41 40 41 41 40 39 39 39 39 39 40 39 39 40 41 40 40 38 38 38 37 37 37
48 48 48 48 47 48 47 48 49 48 47 47 46 45 44 43 42 42 41 40 40 41 40 40 40 40 39 39 39 39 39 39 40 41 40 38 38 38 38 37 36 37
46 46 47 46 45 45 44 45 45 45 45 44 44 43 43 43 42 41 40 39 40 40 40 40 40 40 39 39 39 39 40 41 40 40 40 38 37 38 39 40 39 38
45 45 44 42 43 43 43 43 43 44 43 44 42 39 40 41 41 39 39 41 40 40 40 40 40 40 40 39 39 40 40 40 41 41 40 38 38 39 38 38 38 39
44 43 43 42 42 42 42 41 41 41 41 42 40 38 39 38 38 40 40 40 40 39 39 39 39 39 39 39 40 40 40 39 39 39 39 40 40 40 40 40 39 38
43 42 42 42 42 41 41 40 39 40 39 40 39 38 38 39 39 40 40 40 40 40 40 40 40 40 39 40 40 41 40 39 39 39 38 38 38 38 38 38 36 37
43 42 42 42 41 41 40 40 40 39 38 38 39 38 39 40 40 39 40 40 40 40 40 40 40 39 39 40 41 41 40 39 38 37 37 38 40 40 40 40 39 38
43 43 42 41 40 41 41 40 39 38 38 38 37 38 39 39 39 39 39 40 40 40 39 39 40 39 39 39 39 39 40 40 39 39 39 40 40 40 41 40 38 37
42 41 41 41 40 40 40 39 39 38 38 37 37 38 39 39 39 39 38 39 39 39 39 39 39 39 40 40 40 40 40 40 40 40 40 39 40 40 40 39 37 37
41 41 41 40 40 40 39 39 39 38 37 37 38 39 39 39 39 39 38 37 37 37 38 38 38 38 39 40 40 40 40 40 40 40 39 39 38 38 38 37 36 36
40 40 41 39 39 39 39 38 38 37 37 37 37 38 38 38 38 38 38 37 37 37 37 37 37 38 37 39 40 39 39 39 39 39 39 39 38 36 36 36 35 35
40 40 39 39 39 38 38 38 37 37 36 36 37 38 37 37 38 37 37 37 37 37 36 36 36 37 38 41 42 42 40 39 39 38 38 38 37 35 34 34 34 34
40 39 39 38 38 38 37 37 37 36 35 35 36 36 36 37 37 37 37 37 37 37 37 37 37 37 40 41 41 42 41 39 38 36 36 37 36 35 35 34 33 32
39 39 38 37 37 37 36 36 36 35 34 34 35 36 36 35 36 36 36 36 36 35 36 37 37 39 40 40 41 42 41 39 37 36 35 34 35 35 34 33 32 31
39 38 37 37 36 36 36 36 35 34 34 34 34 34 35 35 35 35 35 35 35 35 35 35 35 37 40 40 40 41 42 39 35 35 35 34 34 35 35 33 32 30
38 38 37 36 35 35 35 35 34 33 32 32 33 33 34 34 34 34 34 34 34 34 34 34 35 37 38 39 40 40 41 38 35 35 35 33 35 35 35 34 32 31
37 36 36 35 34 34 34 34 33 32 32 31 32 32 34 35 34 34 33 33 33 33 33 33 34 38 38 39 39 40 41 35 34 34 33 33 33 34 34 34 33 32
36 36 34 34 34 33 33 32 31 31 30 31 31 32 33 34 33 33 34 33 33 33 33 33 33 37 38 38 39 40 38 34 34 34 33 32 32 33 33 33 33 32
35 35 34 33 33 33 32 31 31 30 30 31 31 31 32 33 33 33 33 33 32 32 33 32 32 35 38 38 39 40 36 34 34 33 31 30 30 31 31 31 32 32
34 34 33 33 32 32 32 30 30 30 29 30 31 32 32 32 33 32 32 32 32 32 33 32 32 34 37 38 39 39 36 34 34 32 30 29 29 29 29 29 30 31
33 33 32 32 31 30 30 29 29 29 29 30 32 33 32 32 32 32 31 31 31 31 32 32 32 33 35 38 38 39 38 34 33 31 29 28 29 29 28 28 28 29
MSLP
1016.34 1016.47 1016.59 1016.73 1016.79 1016.85 1016.97 1017.17 1017.40 1017.59 1017.84 1018.16 1018.40 1018.61 1018.85 1019.08 1019.40 1019.66 1019.84 1020.05 1020.16 1020.09 1020.20 1020.41 1020.64 1020.82 1021.08 1021.34 1021.53 1021.79 1022.09 1022.28 1022.46 1022.64 1022.79 1022.97 1023.29 1023.58 1023.78 1023.91 1024.16 1024.44
1016.11 1016.23 1016.35 1016.47 1016.59 1016.73 1016.79 1016.88 1017.05 1017.23 1017.47 1017.73 1017.97 1018.29 1018.53 1018.82 1019.08 1019.28 1019.47 1019.72 1019.84 1019.96 1020.20 1020.43 1020.58 1020.72 1020.93 1021.22 1021.43 1021.64 1021.96 1022.26 1022.40 1022.58 1022.82 1022.99 1023.22 1023.41 1023.55 1023.76 1023.84 1024.26
1015.85 1015.99 1016.09 1016.14 1016.22 1016.35 1016.49 1016.64 1016.78 1016.93 1017.11 1017.38 1017.76 1017.99 1018.17 1018.35 1018.64 1018.93 1019.16 1019.40 1019.64 1019.85 1020.16 1020.38 1020.55 1020.72 1020.88 1021.11 1021.41 1021.67 1021.85 1022.05 1022.34 1022.55 1022.61 1022.79 1023.11 1023.28 1023.59 1023.84 1023.96 1023.96
1015.47 1015.64 1015.78 1015.84 1015.91 1016.03 1016.20 1016.40 1016.53 1016.67 1016.85 1017.14 1017.38 1017.61 1017.85 1018.09 1018.34 1018.66 1018.93 1019.23 1019.55 1019.82 1020.05 1020.28 1020.40 1020.64 1020.79 1021.02 1021.32 1021.64 1021.85 1022.03 1022.08 1022.28 1022.41 1022.76 1022.97 1023.26 1023.66 1023.93 1024.19 1024.44
1015.02 1015.23 1015.41 1015.52 1015.59 1015.73 1015.91 1016.08 1016.22 1016.40 1016.55 1016.73 1017.05 1017.32 1017.61 1017.97 1018.32 1018.64 1018.91 1019.22 1019.46 1019.72 1019.93 1020.14 1020.40 1020.59 1020.79 1021.05 1021.29 1021.53 1021.82 1021.97 1022.20 1022.32 1022.40 1022.66 1023.02 1023.23 1023.58 1023.82 1024.26 1024.61
1014.64 1014.73 1014.93 1015.16 1015.34 1015.43 1015.53 1015.59 1015.78 1016.08 1016.29 1016.53 1016.67 1017.05 1017.34 1017.78 1018.11 1018.40 1018.73 1018.99 1019.23 1019.47 1019.76 1020.08 1020.38 1020.58 1020.76 1020.99 1021.29 1021.43 1021.64 1021.84 1021.97 1022.09 1022.28 1022.53 1022.97 1023.29 1023.58 1023.79 1024.14 1024.56
1014.29 1014.40 1014.52 1014.82 1015.09 1015.22 1015.32 1015.38 1015.49 1015.70 1015.91 1016.16 1016.58 1016.82 1017.20 1017.61 1017.90 1018.17 1018.47 1018.73 1019.03 1019.29 1019.52 1019.85 1020.20 1020.46 1020.70 1020.91 1021.11 1021.32 1021.55 1021.70 1021.88 1021.96 1022.11 1022.53 1022.84 1023.23 1023.47 1023.72 1023.99 1024.33
1013.99 1014.11 1014.23 1014.53 1014.82 1015.03 1015.14 1015.23 1015.32 1015.53 1015.82 1016.14 1016.29 1016.64 1016.96 1017.28 1017.61 1017.96 1018.26 1018.58 1018.85 1019.08 1019.35 1019.66 1019.99 1020.26 1020.53 1020.72 1020.97 1021.23 1021.40 1021.59 1021.78 1021.88 1022.05 1022.46 1022.73 1022.99 1023.38 1023.66 1023.91 1024.19
1013.96 1013.97 1014.08 1014.32 1014.59 1014.82 1014.90 1015.02 1015.20 1015.43 1015.73 1015.97 1016.28 1016.67 1016.97 1017.09 1017.40 1017.76 1018.05 1018.35 1018.64 1018.90 1019.20 1019.49 1019.79 1020.11 1020.40 1020.52 1020.66 1020.88 1021.09 1021.34 1021.49 1021.72 1021.90 1022.26 1022.55 1022.73 1022.93 1023.35 1023.85 1024.14
1013.84 1013.90 1013.93 1014.08 1014.28 1014.52 1014.67 1014.90 1015.17 1015.40 1015.70 1015.90 1016.22 1016.64 1016.88 1017.23 1017.43 1017.64 1017.93 1018.23 1018.46 1018.76 1019.08 1019.35 1019.66 1019.96 1020.22 1020.40 1020.47 1020.61 1020.88 1021.14 1021.35 1021.49 1021.79 1022.03 1022.11 1022.34 1022.70 1023.17 1023.49 1023.78
1013.72 1013.79 1013.64 1013.73 1013.96 1014.32 1014.55 1014.88 1015.09 1015.35 1015.67 1015.85 1016.23 1016.53 1016.84 1017.16 1017.46 1017.66 1017.85 1018.05 1018.28 1018.53 1018.85 1019.09 1019.34 1019.61 1019.91 1020.14 1020.28 1020.40 1020.53 1020.84 1021.14 1021.38 1021.64 1021.91 1022.16 1022.26 1022.35 1022.73 1023.49 1023.55
1013.64 1013.70 1013.34 1013.29 1013.70 1014.11 1014.43 1014.72 1014.97 1015.23 1015.53 1015.82 1016.02 1016.35 1016.73 1016.99 1017.22 1017.49 1017.61 1017.79 1018.03 1018.29 1018.53 1018.79 1019.08 1019.38 1019.61 1019.78 1019.93 1020.16 1020.38 1020.61 1020.90 1021.20 1021.47 1021.73 1022.05 1022.35 1022.49 1022.70 1022.96 1023.38
1013.40 1013.47 1013.34 1013.22 1013.43 1013.82 1014.22 1014.52 1014.78 1015.03 1015.29 1015.55 1015.88 1016.08 1016.38 1016.73 1017.03 1017.23 1017.43 1017.61 1017.90 1018.16 1018.41 1018.64 1018.88 1019.16 1019.41 1019.61 1019.82 1020.05 1020.26 1020.47 1020.76 1021.02 1021.26 1021.49 1021.73 1021.93 1022.20 1022.53 1022.85 1023.22
1013.02 1013.38 1013.38 1013.14 1013.23 1013.58 1013.85 1014.16 1014.47 1014.78 1015.03 1015.32 1015.61 1015.84 1016.09 1016.40 1016.72 1016.97 1017.26 1017.52 1017.76 1018.03 1018.29 1018.49 1018.73 1018.99 1019.22 1019.46 1019.70 1019.85 1020.03 1020.22 1020.49 1020.79 1021.05 1021.28 1021.43 1021.72 1022.05 1022.40 1022.82 1023.17
1012.93 1013.23 1013.28 1013.11 1013.08 1013.26 1013.53 1013.84 1014.09 1014.38 1014.72 1015.02 1015.29 1015.59 1015.91 1016.17 1016.47 1016.79 1017.16 1017.52 1017.79 1018.05 1018.32 1018.49 1018.61 1018.72 1018.88 1019.11 1019.41 1019.61 1019.73 1019.91 1020.22 1020.55 1020.79 1021.02 1021.28 1021.73 1022.22 1022.58 1023.05 1023.40
1012.70 1013.05 1013.09 1013.02 1012.97 1013.02 1013.22 1013.53 1013.85 1014.17 1014.49 1014.79 1015.11 1015.41 1015.72 1016.02 1016.34 1016.66 1016.93 1017.28 1017.67 1017.97 1018.17 1018.34 1018.46 1018.59 1018.73 1018.97 1019.26 1019.43 1019.59 1019.82 1020.11 1020.41 1020.70 1020.90 1021.17 1021.72 1022.41 1022.84 1023.09 1023.43
1012.35 1012.72 1012.91 1012.78 1012.73 1012.97 1013.16 1013.40 1013.67 1014.03 1014.38 1014.70 1015.02 1015.29 1015.59 1015.93 1016.22 1016.52 1016.82 1017.14 1017.40 1017.66 1017.90 1018.09 1018.28 1018.46 1018.66 1018.96 1019.17 1019.40 1019.58 1019.73 1019.91 1020.23 1020.59 1021.02 1021.29 1021.55 1022.05 1022.79 1023.22 1023.47
1011.90 1012.41 1012.64 1012.53 1012.66 1012.76 1012.97 1013.22 1013.55 1013.91 1014.26 1014.59 1014.93 1015.23 1015.55 1015.85 1016.11 1016.35 1016.66 1016.93 1017.23 1017.52 1017.70 1017.88 1018.08 1018.29 1018.53 1018.82 1019.02 1019.16 1019.34 1019.58 1019.90 1020.26 1020.67 1021.05 1021.41 1021.61 1021.85 1022.35 1022.88 1023.34
1011.55 1011.97 1012.20 1012.32 1012.38 1012.58 1012.84 1013.09 1013.38 1013.76 1014.09 1014.46 1014.72 1015.02 1015.41 1015.70 1015.96 1016.26 1016.53 1016.85 1017.09 1017.35 1017.58 1017.72 1017.90 1018.09 1018.41 1018.70 1018.90 1019.03 1019.23 1019.43 1019.78 1020.14 1020.58 1021.08 1021.52 1022.02 1022.23 1022.58 1023.11 1023.47
1011.20 1011.59 1011.84 1011.97 1012.16 1012.38 1012.61 1012.84 1013.16 1013.43 1013.84 1014.17 1014.52 1014.88 1015.16 1015.52 1015.85 1016.14 1016.49 1016.76 1016.99 1017.26 1017.47 1017.66 1017.84 1018.08 1018.29 1018.55 1018.72 1018.82 1019.05 1019.38 1019.84 1020.23 1020.66 1021.05 1021.59 1022.03 1022.11 1022.43 1022.79 1023.09
1010.93 1011.28 1011.55 1011.79 1011.97 1012.20 1012.46 1012.70 1012.99 1013.43 1013.78 1014.05 1014.29 1014.58 1014.90 1015.22 1015.53 1015.91 1016.26 1016.61 1016.93 1017.16 1017.38 1017.58 1017.78 1017.99 1018.23 1018.46 1018.67 1018.84 1019.03 1019.35 1019.82 1020.17 1020.58 1021.03 1021.46 1021.79 1021.93 1022.11 1022.49 1022.66
1010.73 1011.14 1011.46 1011.73 1011.96 1012.22 1012.43 1012.72 1013.11 1013.41 1013.72 1014.09 1014.34 1014.66 1014.90 1015.14 1015.46 1015.78 1016.20 1016.55 1016.82 1017.03 1017.26 1017.43 1017.55 1017.70 1017.97 1018.22 1018.41 1018.66 1018.85 1019.26 1019.59 1019.97 1020.38 1020.79 1021.28 1021.66 1021.97 1022.20 1022.28 1022.38
1010.67 1011.03 1011.41 1011.70 1011.99 1012.28 1012.55 1012.90 1013.26 1013.66 1013.96 1014.20 1014.41 1014.67 1014.85 1015.09 1015.34 1015.59 1015.93 1016.32 1016.61 1016.82 1016.99 1017.22 1017.38 1017.47 1017.70 1017.93 1018.20 1018.35 1018.61 1019.09 1019.40 1019.73 1020.14 1020.59 1021.09 1021.52 1021.90 1022.16 1022.26 1022.35
1010.61 1010.93 1011.29 1011.64 1011.96 1012.16 1012.47 1012.88 1013.26 1013.64 1013.93 1014.20 1014.35 1014.67 1014.91 1015.09 1015.32 1015.64 1015.93 1016.17 1016.41 1016.66 1016.84 1017.11 1017.41 1017.47 1017.59 1017.82 1018.02 1018.14 1018.49 1018.91 1019.26 1019.70 1020.32 1020.76 1021.28 1021.70 1022.02 1022.22 1022.32 1022.40
1010.64 1010.91 1011.20 1011.49 1011.84 1012.14 1012.46 1012.79 1013.20 1013.55 1013.97 1014.26 1014.52 1014.78 1015.05 1015.32 1015.47 1015.72 1016.02 1016.23 1016.43 1016.61 1016.84 1017.14 1017.46 1017.59 1017.66 1017.79 1017.96 1018.20 1018.64 1019.02 1019.40 1019.91 1020.52 1021.08 1021.41 1021.93 1022.26 1022.32 1022.49 1022.61
1010.70 1010.99 1011.34 1011.61 1011.96 1012.40 1012.73 1013.03 1013.43 1013.79 1014.09 1014.35 1014.66 1014.91 1015.26 1015.49 1015.66 1015.82 1016.02 1016.28 1016.52 1016.72 1016.91 1017.17 1017.46 1017.64 1017.67 1017.73 1017.90 1018.11 1018.52 1018.91 1019.38 1019.88 1020.49 1021.02 1021.38 1021.66 1022.16 1022.55 1022.67 1022.82
Wind_Speed
8 7 8 7 7 6 6 7 7 8 7 7 8 7 7 7 7 9 9 8 8 7 6 6 6 7 8 7 8 9 9 11 11 10 12 11 10 9 9 10 11 10
9 8 7 7 7 6 6 6 6 7 7 7 7 7 6 7 8 9 9 8 8 8 7 7 7 7 7 7 7 8 7 7 10 7 8 7 6 7 9 8 10 8
8 8 8 8 8 7 8 6 6 6 7 7 7 7 7 7 8 8 7 8 8 8 7 7 7 7 6 6 5 5 6 7 8 6 8 8 6 8 6 6 8 10
9 9 9 9 8 7 7 7 7 6 6 6 8 8 8 7 8 9 8 9 7 7 7 7 7 7 6 6 6 6 6 7 8 7 7 5 7 7 6 5 7 7
10 9 8 8 7 7 7 9 10 8 8 7 6 7 8 7 7 7 8 8 8 7 7 6 5 6 6 5 6 7 7 7 6 7 7 7 6 8 7 8 8 8
8 9 8 8 7 8 9 10 9 9 9 7 8 7 7 7 8 8 8 8 7 7 7 7 6 6 6 6 5 6 7 7 7 8 8 8 7 6 7 8 9 9
10 9 9 8 7 8 8 8 7 8 8 8 6 8 7 8 8 8 8 7 8 8 8 8 8 8 7 7 7 7 6 7 7 8 9 7 7 7 6 8 9 10
9 7 8 8 8 8 9 8 7 7 6 6 8 7 8 9 9 8 7 8 8 8 8 8 8 8 7 8 8 7 8 6 7 8 8 8 8 9 9 8 10 11
8 8 7 7 9 9 9 9 7 7 6 7 7 6 6 8 8 8 8 8 8 7 8 7 8 8 7 8 9 10 9 8 8 9 9 10 10 11 11 10 10 10
9 8 9 9 10 9 9 7 6 6 6 7 7 6 7 5 6 7 7 8 8 7 7 7 8 7 8 8 10 10 9 9 8 8 8 10 11 11 11 10 11 12
9 9 10 10 10 8 8 7 7 6 6 7 6 6 6 6 5 5 7 7 8 8 8 9 9 9 9 9 9 9 10 9 8 8 8 9 8 10 12 13 11 11
10 9 11 11 10 8 8 8 8 7 7 6 7 7 7 7 8 7 7 8 7 8 8 9 8 8 9 9 9 8 8 8 8 8 8 9 9 9 10 11 12 12
10 11 9 9 9 8 7 7 8 8 8 8 7 8 8 8 7 7 6 7 7 7 8 8 8 8 8 8 8 8 8 8 9 9 9 9 9 10 9 9 10 11
10 8 8 8 7 7 8 8 7 8 8 7 7 8 8 8 8 8 7 7 7 7 6 6 6 7 7 7 7 8 8 8 9 9 9 9 8 8 8 9 10 10
6 7 7 7 8 8 8 8 8 8 7 8 8 8 6 7 7 7 7 7 6 6 6 6 7 7 7 8 8 8 8 9 9 9 9 9 9 8 7 8 8 7
7 6 7 7 8 9 9 8 8 8 7 7 7 7 7 7 7 7 8 8 7 7 7 6 6 5 8 12 9 8 8 7 7 8 8 9 10 10 8 7 8 7
7 8 7 9 8 7 7 8 8 7 7 7 7 7 8 7 7 8 7 7 8 8 7 6 6 5 11 12 13 12 8 7 8 8 8 8 9 11 12 10 8 8
8 7 8 8 7 8 7 7 7 7 7 7 7 7 6 7 7 7 7 7 6 7 7 6 6 7 10 11 12 12 9 7 7 7 7 9 9 10 10 11 11 10
8 9 9 8 8 7 7 7 8 8 8 8 8 7 7 7 7 7 7 6 7 7 7 7 6 9 12 12 12 13 12 10 7 7 8 8 9 8 9 10 10 10
8 8 8 8 7 7 7 8 8 9 8 7 7 7 7 7 6 7 6 7 7 7 6 5 5 6 9 9 9 11 11 8 6 7 7 8 9 10 10 11 12 12
9 8 8 7 7 7 7 8 8 7 7 7 8 8 8 8 8 8 7 6 6 5 5 5 5 9 12 12 12 13 14 9 7 7 8 8 9 9 10 12 11 12
8 7 7 6 6 7 7 7 7 8 8 6 6 5 5 5 5 6 7 7 6 7 6 6 6 13 14 14 14 15 16 8 8 8 8 8 8 9 8 9 10 11
7 7 7 7 6 7 6 6 6 6 5 5 6 6 7 7 7 6 6 7 7 7 7 5 5 11 15 16 16 18 12 7 8 8 8 9 9 9 8 8 8 9
6 7 7 7 7 8 8 6 6 5 6 6 7 7 6 6 6 6 6 6 7 7 6 6 5 9 15 16 17 16 10 9 8 8 7 7 7 7 6 6 7 11
6 7 7 8 8 7 7 7 7 7 5 5 5 5 5 5 5 6 5 5 5 5 7 7 5 8 13 14 15 16 11 7 7 7 8 7 8 6 4 6 6 7
5 6 6 7 7 6 5 6 5 6 6 6 5 5 5 5 5 5 6 4 4 5 5 6 6 5 9 15 15 17 15 9 7 9 9 9 7 8 8 5 6 6
Wind_Direction
200 198 205 208 211 202 198 190 190 195 197 194 200 199 195 192 169 180 188 188 194 194 190 185 183 183 179 178 184 189 195 199 200 200 200 195 196 190 189 179 176 175
204 201 201 204 209 204 211 199 194 190 198 198 197 188 191 175 187 186 188 189 188 195 192 191 190 190 184 181 183 179 183 188 199 189 189 187 186 179 184 177 165 147
198 202 203 205 202 201 202 203 200 199 195 194 187 190 193 188 185 189 187 186 189 188 185 188 185 188 182 184 181 185 185 184 193 194 178 187 170 173 181 166 156 152
202 203 207 209 202 200 197 202 206 204 197 190 194 189 191 190 182 180 182 181 183 185 183 182 187 184 183 182 176 184 190 197 196 180 178 169 169 160 159 145 137 133
201 204 202 200 197 195 198 207 210 207 203 195 185 181 178 177 170 175 177 179 177 177 173 181 181 184 177 176 180 184 188 192 186 180 173 175 174 160 158 141 142 141
205 203 200 196 191 192 201 205 205 201 200 194 189 175 179 168 174 179 179 179 179 175 177 176 181 185 177 178 174 188 184 185 187 177 177 175 170 163 154 149 145 146
202 199 200 195 198 198 201 202 195 192 192 189 170 190 168 173 177 178 177 177 176 179 179 178 183 185 183 178 180 185 188 186 182 178 172 170 158 161 156 152 150 149
202 200 192 192 197 200 200 199 192 188 185 173 186 183 173 177 180 178 175 173 177 181 180 180 186 188 181 177 181 187 191 184 182 176 170 164 161 161 163 161 154 150
202 203 189 188 191 198 201 199 197 189 177 181 182 173 178 179 177 173 175 174 177 179 179 181 184 185 187 183 186 188 189 189 184 182 173 166 171 171 166 158 154 153
209 203 195 193 196 199 200 193 185 186 177 181 177 166 175 176 170 175 173 174 176 175 177 181 182 184 183 191 191 188 186 185 183 182 179 179 178 171 163 162 163 154
214 203 199 198 200 197 200 189 185 177 176 178 167 171 172 165 176 172 171 172 177 179 181 184 188 184 185 190 192 191 186 180 182 182 177 180 181 176 168 162 164 163
217 211 207 199 195 195 193 189 186 182 178 180 173 174 172 178 175 178 176 178 181 186 185 187 182 183 187 189 190 187 181 177 175 178 180 178 177 177 173 168 165 162
216 219 211 195 191 189 184 184 182 180 177 182 176 175 179 180 179 175 178 176 187 182 183 182 180 178 183 186 184 184 183 178 177 180 177 177 177 174 170 166 161 159
218 216 212 199 184 181 185 187 181 179 179 176 172 180 183 179 176 177 179 181 186 184 183 176 172 177 181 183 186 186 184 183 181 180 178 174 170 165 162 163 163 162
213 215 211 200 187 184 184 185 187 185 177 172 175 180 176 176 170 169 166 177 176 175 178 178 178 182 181 181 185 187 181 181 181 181 175 167 159 154 154 147 146 149
207 209 208 197 192 191 189 183 183 184 178 175 175 173 171 167 164 167 174 176 171 175 181 182 186 186 187 189 192 191 185 178 171 172 169 165 155 143 136 139 142 142
199 207 201 204 197 188 186 180 181 177 176 175 172 169 167 165 163 172 175 171 176 177 177 183 185 187 187 193 194 190 179 172 171 168 162 159 156 151 148 143 134 135
200 199 204 206 189 192 182 180 172 172 174 172 168 167 166 159 171 176 170 171 170 174 180 180 184 179 181 193 195 192 177 166 159 157 157 160 163 157 151 145 143 139
194 199 204 197 193 182 178 174 172 172 173 169 174 168 157 169 175 164 170 164 166 173 181 180 183 180 185 192 193 186 166 157 159 155 154 156 151 151 148 142 143 140
194 197 200 196 181 177 175 176 173 180 174 170 162 159 166 167 163 163 158 169 173 176 175 170 168 169 171 179 185 179 167 145 140 146 149 151 155 164 157 152 152 148
192 194 194 186 178 173 175 178 176 167 165 167 165 168 168 170 169 169 172 170 171 167 169 175 171 175 178 183 187 187 175 145 148 150 155 157 162 165 161 157 156 152
183 187 183 175 172 172 173 175 170 168 166 163 153 155 154 150 151 152 159 166 170 167 165 173 171 177 177 181 179 177 170 151 154 152 150 151 156 159 160 159 157 152
175 172 172 169 168 166 171 166 162 163 160 150 146 156 160 164 167 164 161 161 163 168 166 165 165 174 173 173 176 179 159 151 152 151 151 151 152 155 158 160 157 151
165 161 161 163 163 170 169 169 162 152 157 159 158 160 164 164 154 146 150 158 161 166 163 154 162 173 173 176 179 175 149 153 151 143 140 134 132 135 144 147 143 143
156 155 159 162 166 167 163 159 159 158 150 141 145 143 146 139 141 141 143 147 156 152 152 149 157 179 178 179 176 165 145 151 143 136 131 135 133 129 126 134 131 136
150 150 152 153 153 143 138 140 132 125 137 137 134 135 139 141 136 139 144 145 137 139 146 146 152 169 175 173 170 163 159 145 145 139 143 146 146 143 137 130 134 133